Location: *
(49.4547°N, 7.9131°E)
Time: 10:26:23
(UTC+00:00)

Resurs 01 Rocket - Pass Details

Date: 22 September 2019
Orbit: 635 x 644 km, 98.0° (Epoch: 15 October)

Event Time Altitude Azimuth Distance (km) Brightness Sun altitude
Exits shadow 20:40:23 28° 256° (WSW) 1,210 3.3 -29.6°
Maximum altitude 20:40:46 28° 265° (W) 1,199 3.3 -29.7°
Drops below altitude 10° 20:44:38 10° 325° (NW) 2,049 5.1 -30.1°
Sets 20:47:07 0° 337° (NNW) 2,965 6.0 -30.4°
